Location: Newark
(52.3500°N, 175.9667°E)
Time: 10:42:42
(UTC+00:00)

Envisat - Visible Passes

Search period start: 22 November 2019 00:00
Search period end: 02 December 2019 00:00
Orbit: 764 x 766 km, 98.1° (Epoch: 22 November)

Date Brightness Start Highest point End Pass type
(mag) Time Alt. Az. Time Alt. Az. Time Alt. Az.
22 Nov 3.2 05:27:18 10° SE 05:32:11 50° ENE 05:37:06 10° N visible
22 Nov 4.9 07:07:04 10° SSW 07:11:27 29° W 07:15:52 10° NNW visible
22 Nov 6.3 17:32:36 10° ENE 17:34:02 11° E 17:35:27 10° E visible
22 Nov 3.5 19:08:59 10° NNE 19:14:04 67° ESE 19:19:07 10° S visible
23 Nov 3.9 04:51:25 10° ESE 04:55:40 28° ENE 04:59:57 10° N visible
23 Nov 3.7 06:29:27 10° S 06:34:26 55° W 06:39:27 10° NNW visible
23 Nov 4.9 18:32:27 10° NNE 18:37:06 34° E 18:41:43 10° SSE visible
24 Nov 2.9 05:52:32 10° SSE 05:57:36 78° ENE 06:02:42 10° NNW visible
24 Nov 5.6 07:33:46 10° SW 07:37:15 18° W 07:40:45 10° NW visible
24 Nov 5.9 17:56:28 10° NE 17:59:57 18° E 18:03:23 10° SE visible
25 Nov 3.4 05:16:13 10° SE 05:20:58 42° ENE 05:25:44 10° N visible
25 Nov 4.6 06:55:28 10° SSW 07:00:05 35° W 07:04:44 10° NNW visible
25 Nov 3.9 18:57:44 10° NNE 19:02:45 55° E 19:07:44 10° S visible
26 Nov 3.3 06:18:04 10° S 06:23:07 67° WSW 06:28:13 10° NNW visible
26 Nov 6.2 08:01:38 10° W 08:03:09 11° W 08:04:39 10° WNW visible
26 Nov 5.2 18:21:20 10° NNE 18:25:44 28° E 18:30:06 10° SSE visible
27 Nov 2.9 05:41:20 10° SSE 05:46:21 65° ENE 05:51:24 10° N visible
27 Nov 5.4 07:21:55 10° SW 07:25:50 22° W 07:29:47 10° NW visible
27 Nov 6.0 17:45:39 10° NE 17:48:30 15° E 17:51:21 10° ESE visible
28 Nov 3.6 05:05:12 10° SE 05:09:46 35° ENE 05:14:21 10° N visible
28 Nov 4.2 06:43:55 10° SSW 06:48:43 42° W 06:53:34 10° NNW visible
28 Nov 4.3 18:46:32 10° NNE 18:51:25 45° E 18:56:17 10° S visible
29 Nov 3.1 06:06:44 10° SSE 06:11:49 81° WSW 06:16:57 10° NNW visible
29 Nov 6.0 07:49:06 10° WSW 07:51:41 14° W 07:54:17 10° NW visible
29 Nov 5.5 18:10:15 10° NE 18:14:20 24° E 18:18:24 10° SE visible
30 Nov 3.1 05:30:11 10° SE 05:35:06 54° ENE 05:40:04 10° N visible
30 Nov 5.1 07:10:10 10° SSW 07:14:26 27° W 07:18:44 10° NW visible
30 Nov 6.2 17:35:05 10° ENE 17:37:03 12° E 17:39:00 10° ESE visible
30 Nov 3.4 19:11:54 10° NNE 19:17:01 72° ESE 19:22:05 10° S visible
01 Dec 3.8 04:54:13 10° ESE 04:58:35 30° ENE 05:02:57 10° N visible
01 Dec 3.8 06:32:27 10° S 06:37:23 51° W 06:42:22 10° NNW visible
01 Dec 4.7 18:35:21 10° NNE 18:40:04 37° E 18:44:46 10° SSE visible
